星链-5310 (STARLINK-5310 )

导读 | 豆包AI

STARLINK-5310是美国太空探索技术公司(SpaceX)星链(Starlink)卫星互联网项目中的卫星,于2023年1月19日发射入轨,隶属于星链第二代卫星星座。星链项目旨在构建全球卫星互联网星座,为全球偏远地区、海洋等地面网络覆盖盲区提供高速互联网接入服务,该卫星是星链大规模组网进程中的组成单元。

Basic Information
目录编号:
55272
目录名称:
STARLINK-5310
国际标识:
2023-010D
轨道中心:
EARTH
卫星名称:
星链-5310
卫星全名:
星链-5310 (STARLINK-5310 )
卫星状态:
在轨 (已飞行1197 天)
发射日期:
2023-01-19 UTC
国别 :
美国 (US)
星等 :
--
Orbit Information
数据来源 国际轨道数据 AOE轨道数据
星历时间 2026-04-30T05:07:54+0800
19小时前
查看轨道信息
2026-04-28T08:00:00+0800
2天前
查看轨道信息
半长轴 6950.134km 6950.172km
偏心率 0.0003076 0.0003127
轨道倾角 69.999° 70.001°
近地点辐角 270.389° 286.886°
升交点赤经 275.392° 280.127°
平近点角 89.692° 12.732°
近地点 569.859km 569.861km
远地点 574.135km 574.209km
周期 96.106分钟 96.107分钟
每日圈数 14.983491 14.983368
Detailed Information
固有亮度:
5
最大亮度:
2.5
卫星平台:
Starlink v1.5
覆盖范围:
全球
运营商:
太空探索技术公司
运营商所在国:
美国
制造商(研发单位):
太空探索技术公司
制造商所在国:
美国
使用方式:
暂无
Satellite Introduction
星链(Starlink)计划是由太空探索技术公司(SpaceX)提出的一个巨型低轨卫星互联网星座项目,计划在2019年至2024年间在太空搭建由约1.2万颗卫星组成的“星链”网络,其中1584颗将部署在地球上空550千米处的近地轨道,并从2020年开始工作。该卫星仍在工作。
2D Orbit Map
3D Orbit Map
Orbit Altitude Analysis Chart
Orbit Inclination Analysis Chart
Orbit Comprehensive Analysis Chart
View Comprehensive Chart